STARLINK-1266, 45383

Orbit data source: Space-Track

STARLINK-1266, 45383 is a payload satellite owned by SpaceX/Seattle (US) in LEO that was launched on Wed, 18 Mar 2020 UTC via an FALCON 9 launch vehicle from the Air Force Eastern Test Range (AFETR). Payload-class satellites include a variety of spacecraft equipped with specific instruments for various scientific and technological missions. These include communications satellites like Starlink; space stations such as the ISS; scientific satellites like the Hubble; Earth observation satellites from companies like Planet Labs, Umbra, and HawkEye 360; GPS; miniature CubeSats for education and research; and military/defense satellites.

Loading next visibility...
Identifier
45383, 2020-019Z
Orbit
LEO
Country
Flag of USUS
Related business
Manufacturer
SpaceX/Seattle
Mission
Partially operational Commercial Communications
Bus & Motor
STARLINK, Unknown motor
Mass
260 kg wet, ~248 kg dry
Launch date (UTC)
2020-03-18 (6 years ago)
Launch vehicle
FALCON 9
Launch site
Air Force Eastern Test Range (AFETR)
Object type
Payload
Rocket body
Debris
Shape & HBR
Box + 1 Pan, 10.1 m
Radar Cross Section
13.562 m², Large (>1 m²)

Expand to show TLE details & history
Last TLE update: 22 hours ago

TLE from 22 hours ago
0 STARLINK-1266
1 45383U 20019Z   26169.95213642  .00039791  00000-0  37224-3 0  9991
2 45383  53.0459   3.3570 0000714 238.9139 121.1806 15.66879970345959
Epoch: 2026-06-18T22:51Z
TLE epoch observation values (Epoch: 2026-06-18T22:51:04.586Z)
Latitude
-0.00005°
Longitude
113.39977°
Altitude
368.988 km
Speed
7.689 km/s
True Right ascension
00h 13m 25s
True Declination
0° 00' 00"
Sunlit
Object was in daylight at epoch
Visualization orbit readout
Latitude
Unknown
Longitude
Unknown
Altitude
Unknown
Speed
Unknown
Apparent Right ascension
Unknown
Apparent Declination
Unknown
Sunlit
N/A
Visualization observer readout
Local Sidereal Time
08:05:16
Azimuth
Unknown
Elevation
Unknown
Doppler factor
Unknown
Orbital elements
Apogee altitude
368.598 km
Perigee altitude
367.635 km
Semi-major axis
6,746.254 km
Eccentricity
0.00007
Inclination
53.0459°
RAAN
3.357°
Arg. of periapsis
238.9139°
True anomaly
121.1876°
Mean anomaly
121.1806°
Eccentric anomaly
121.1841°
Mean motion
3.91696 °/min
Orbital period
91.91 mins
BSTAR
0.00037224
Loading maneuver chart data...
Computing Atmospheric mass density...

Documentation

Showing up to 5 results
|